TimeEST,TemperatureF,Dew PointF,Humidity,Sea Level PressureIn,VisibilityMPH,Wind Direction,Wind SpeedMPH,Gust SpeedMPH,PrecipitationIn,Events,Conditions,WindDirDegrees,DateUTC
12:54 AM,23.0,21.9,96,30.32,10.0,Calm,Calm,-,N/A,,Clear,0,2012-12-04 05:54:00
1:26 AM,21.2,21.2,100,30.31,10.0,Calm,Calm,-,N/A,,Scattered Clouds,0,2012-12-04 06:26:00
1:38 AM,23.0,21.2,93,30.31,6.0,Calm,Calm,-,N/A,,Mostly Cloudy,0,2012-12-04 06:38:00
1:54 AM,23.0,21.0,92,30.32,2.5,Calm,Calm,-,N/A,,Overcast,0,2012-12-04 06:54:00
2:09 AM,21.2,19.4,93,30.30,10.0,Calm,Calm,-,N/A,,Overcast,0,2012-12-04 07:09:00
2:20 AM,21.2,19.4,93,30.30,1.5,Calm,Calm,-,N/A,,Overcast,0,2012-12-04 07:20:00
2:25 AM,21.2,19.4,93,30.30,0.8,Calm,Calm,-,N/A,,Mist,0,2012-12-04 07:25:00
2:42 AM,21.2,21.2,100,30.30,1.2,Calm,Calm,-,N/A,,Overcast,0,2012-12-04 07:42:00
2:44 AM,21.2,21.2,100,30.30,3.0,Calm,Calm,-,N/A,,Overcast,0,2012-12-04 07:44:00
2:54 AM,21.0,19.9,96,30.32,1.0,Calm,Calm,-,N/A,,Mist,0,2012-12-04 07:54:00
3:02 AM,21.2,19.4,93,30.30,0.5,WNW,3.5,-,N/A,Fog,Light Freezing Fog,290,2012-12-04 08:02:00
3:17 AM,21.2,21.2,100,30.30,0.2,Calm,Calm,-,N/A,Fog,Light Freezing Fog,0,2012-12-04 08:17:00
3:40 AM,23.0,21.2,93,30.30,0.8,Calm,Calm,-,N/A,,Overcast,0,2012-12-04 08:40:00
3:42 AM,24.8,21.2,86,30.30,1.5,Calm,Calm,-,N/A,,Overcast,0,2012-12-04 08:42:00
3:45 AM,24.8,21.2,86,30.30,3.0,Calm,Calm,-,N/A,,Overcast,0,2012-12-04 08:45:00
3:54 AM,24.1,23.0,96,30.32,4.0,Calm,Calm,-,N/A,,Overcast,0,2012-12-04 08:54:00
4:54 AM,27.0,26.1,96,30.31,10.0,Calm,Calm,-,N/A,,Overcast,0,2012-12-04 09:54:00
5:54 AM,28.0,27.0,96,30.32,10.0,Calm,Calm,-,N/A,,Overcast,0,2012-12-04 10:54:00
7:10 AM,28.4,28.4,100,30.30,10.0,Calm,Calm,-,N/A,,Overcast,0,2012-12-04 12:10:00
7:54 AM,30.0,28.9,96,30.32,10.0,Calm,Calm,-,N/A,,Overcast,0,2012-12-04 12:54:00
8:54 AM,30.9,30.9,100,30.32,10.0,Calm,Calm,-,N/A,,Overcast,0,2012-12-04 13:54:00
9:54 AM,32.0,32.0,100,30.31,10.0,Calm,Calm,-,N/A,,Overcast,0,2012-12-04 14:54:00
10:54 AM,33.1,32.0,96,30.28,8.0,Calm,Calm,-,0.00,,Overcast,0,2012-12-04 15:54:00
11:36 AM,33.8,33.8,100,30.23,2.5,East,3.5,-,N/A,,Overcast,100,2012-12-04 16:36:00
11:51 AM,33.8,33.8,100,30.23,3.0,Calm,Calm,-,N/A,,Overcast,0,2012-12-04 16:51:00
11:54 AM,34.0,34.0,100,30.25,4.0,Calm,Calm,-,N/A,,Overcast,0,2012-12-04 16:54:00
12:11 PM,35.6,35.6,100,30.22,5.0,Calm,Calm,-,N/A,,Overcast,0,2012-12-04 17:11:00
12:54 PM,36.0,35.1,97,30.22,7.0,Calm,Calm,-,N/A,,Overcast,0,2012-12-04 17:54:00
1:54 PM,37.0,36.0,96,30.19,4.0,SE,3.5,-,N/A,,Overcast,130,2012-12-04 18:54:00
2:17 PM,37.4,37.4,100,30.16,4.0,Calm,Calm,-,N/A,,Overcast,0,2012-12-04 19:17:00
2:54 PM,39.0,37.9,96,30.17,5.0,Calm,Calm,-,N/A,,Overcast,0,2012-12-04 19:54:00
3:54 PM,39.9,39.0,97,30.16,4.0,Calm,Calm,-,N/A,,Overcast,0,2012-12-04 20:54:00
4:54 PM,39.0,37.9,96,30.14,2.5,Calm,Calm,-,0.00,,Overcast,0,2012-12-04 21:54:00
5:05 PM,39.2,39.2,100,30.11,1.8,SE,4.6,-,N/A,,Overcast,130,2012-12-04 22:05:00
5:28 PM,39.2,39.2,100,30.11,1.2,SE,3.5,-,N/A,,Overcast,140,2012-12-04 22:28:00
5:45 PM,39.2,39.2,100,30.10,0.8,ESE,3.5,-,0.00,,Mist,120,2012-12-04 22:45:00
5:54 PM,39.0,39.0,100,30.12,1.0,Calm,Calm,-,0.00,,Mist,0,2012-12-04 22:54:00
6:05 PM,39.2,39.2,100,30.10,0.8,Calm,Calm,-,N/A,,Overcast,0,2012-12-04 23:05:00
6:13 PM,39.2,39.2,100,30.10,1.0,Calm,Calm,-,N/A,,Overcast,0,2012-12-04 23:13:00
6:21 PM,39.2,39.2,100,30.09,2.0,Calm,Calm,-,N/A,,Overcast,0,2012-12-04 23:21:00
6:29 PM,41.0,39.2,93,30.09,7.0,South,3.5,-,N/A,,Overcast,180,2012-12-04 23:29:00
6:54 PM,41.0,41.0,100,30.10,7.0,South,3.5,-,N/A,,Overcast,190,2012-12-04 23:54:00
7:13 PM,42.8,41.0,93,30.07,9.0,SSE,3.5,-,N/A,,Overcast,160,2012-12-05 00:13:00
7:54 PM,42.1,41.0,96,30.06,6.0,Calm,Calm,-,N/A,,Overcast,0,2012-12-05 00:54:00
8:17 PM,39.2,39.2,100,30.04,1.8,Calm,Calm,-,N/A,,Overcast,0,2012-12-05 01:17:00
8:27 PM,39.2,39.2,100,30.03,0.8,SE,3.5,-,N/A,,Overcast,130,2012-12-05 01:27:00
8:54 PM,41.0,41.0,100,30.04,0.8,Calm,Calm,-,N/A,,Overcast,0,2012-12-05 01:54:00
9:29 PM,41.0,39.2,93,30.00,0.5,East,3.5,-,N/A,Fog,Fog,80,2012-12-05 02:29:00
9:54 PM,42.1,42.1,100,30.00,0.5,Calm,Calm,-,N/A,Fog,Fog,0,2012-12-05 02:54:00
10:49 PM,41.0,41.0,100,29.97,0.5,Calm,Calm,-,0.01,Fog,Fog,0,2012-12-05 03:49:00
10:54 PM,41.0,41.0,100,29.98,0.5,Calm,Calm,-,0.01,Fog,Fog,0,2012-12-05 03:54:00
11:02 PM,39.2,39.2,100,29.96,0.5,Calm,Calm,-,N/A,Fog,Fog,0,2012-12-05 04:02:00
11:44 PM,41.0,41.0,100,29.93,0.5,Calm,Calm,-,N/A,Fog,Fog,0,2012-12-05 04:44:00
11:54 PM,39.9,39.9,100,29.94,0.5,Calm,Calm,-,N/A,Fog,Fog,0,2012-12-05 04:54:00